Volver al catálogo

STARLINK-33782

ActivoComunicacionesVLEO
NORAD 64332·PAYLOAD·🇺🇸 United States

Lanzado Jun 10, 2025 desde Cape Canaveral Space Force Station

Loading…

Próximos Pases (próximas 24 horas)

TLE

ActualizadoSource: CelesTrak SupGP

Época: Sep 14, 2026, 20:57 UTC

1 64332C 25124R   26257.87340278 -.00075176  00000+0 -27229-2 0  2571
2 64332  43.0002 133.1842 0001357 270.6877 135.1072 15.27615263    12

Sigue STARLINK-33782 en tiempo real con AllMySat

Download on the App Store